User: anonymous   Login
Location: Unspecified
(0.0000°N, 0.0000°E)
Time: 14:00:19
(UTC+00:00)
Language:

NOAA 9 - Orbit

View from above orbital plane
View from above orbital plane
View from above satellite
View from above satellite

Ground track
Ground track

The orbit data is extracted from the following two-line orbital elements,

1 15427U 84123A   18050.92300316 -.00000001 +00000-0 +21805-4 0  9997
2 15427 098.8340 357.3514 0014509 337.3510 064.5453 14.16027489713204
Epoch (UTC): 19 February 2018 22:09:07
Eccentricity: 0.0014509
inclination: 98.8340°
perigee height: 828 km
apogee height: 849 km
right ascension of ascending node: 357.3514°
argument of perigee: 337.3510°
revolutions per day: 14.16027489
mean anomaly at epoch: 64.5453°
orbit number at epoch: 71320

The dashed part of the orbit path shows where the satellite is in the earth's shadow,  

DLR